N4DBJ Weather Reports


time (UTC)temp
F
wind
direction
speed
knots
gust
knots
rain 1hr
in
rain 24hr
in
rain mn
in
humidity
%
barometer
mb
20260906123010 70 330 0.0 0.0 0.00 0.00 0.00 99 1011.7
20260906122503 70 265 0.0 0.0 0.00 0.00 0.00 99 1011.3
20260906122000 70 317 0.0 0.0 0.00 0.00 0.00 99 1011.3
20260906121456 70 327 0.0 0.0 0.00 0.00 0.00 99 1011.3
20260906120952 69 319 0.0 0.0 0.00 0.00 0.00 99 1011.1
20260906120447 69 319 0.0 0.0 0.00 0.00 0.00 99 1011.3
20260906115944 69 323 0.0 0.0 0.00 0.00 0.00 99 1010.6
20260906115439 69 328 0.0 0.0 0.00 0.00 0.00 99 1010.7
20260906114938 69 328 0.0 0.0 0.00 0.00 0.00 99 1010.6
20260906114433 69 328 0.0 0.0 0.00 0.00 0.00 99 1011.0
20260906113929 69 324 0.0 0.0 0.00 0.00 0.00 99 1010.6
20260906113427 69 324 0.0 0.0 0.00 0.00 0.00 99 1010.7
20260906112923 69 324 0.0 0.0 0.00 0.00 0.00 99 1010.5
20260906112419 69 324 0.0 0.0 0.00 0.00 0.00 99 1010.3
20260906111914 69 324 0.0 0.0 0.00 0.00 0.00 99 1010.5
20260906111413 69 325 0.0 0.0 0.00 0.00 0.00 99 1010.5
20260906110908 69 343 0.0 0.0 0.00 0.00 0.00 99 1010.5
20260906110404 69 270 0.0 0.0 0.00 0.00 0.00 99 1010.2
20260906105903 69 254 0.0 0.0 0.00 0.00 0.00 99 1010.4
20260906105359 69 205 0.0 0.0 0.00 0.00 0.00 99 1010.1
20260906104854 69 219 0.0 0.9 0.00 0.00 0.00 99 1010.3
20260906104353 70 203 0.0 0.0 0.00 0.00 0.00 99 1010.2
20260906103852 70 203 0.0 0.0 0.00 0.00 0.00 99 1010.2
20260906103350 70 211 0.0 0.0 0.00 0.00 0.00 99 1010.2
20260906102846 70 206 0.0 0.0 0.00 0.00 0.00 99 1009.9
20260906102345 70 206 0.0 0.0 0.00 0.00 0.00 99 1010.1
20260906101840 70 201 0.0 0.0 0.00 0.00 0.00 99 1009.8
20260906101335 70 196 0.0 0.0 0.00 0.00 0.00 99 1009.8
20260906100831 70 223 0.0 0.0 0.00 0.00 0.00 99 1009.9
20260906100329 70 223 0.0 0.0 0.00 0.00 0.00 99 1009.8
20260906095825 70 223 0.0 0.0 0.00 0.00 0.00 99 1009.9
20260906095315 70 219 0.0 0.0 0.00 0.00 0.00 99 1010.0
20260906094814 71 197 0.0 0.0 0.00 0.00 0.00 99 1010.1
20260906094309 71 188 0.0 0.0 0.00 0.00 0.00 99 1010.0
20260906093805 71 186 0.0 0.0 0.00 0.00 0.00 99 1010.2
20260906093301 71 187 0.0 0.0 0.00 0.00 0.00 98 1009.8
20260906092755 71 187 0.0 0.9 0.00 0.00 0.00 98 1010.0
20260906092250 72 292 0.0 0.0 0.00 0.00 0.00 98 1009.7
20260906091746 72 11 0.0 0.0 0.00 0.00 0.00 97 1009.8
20260906091242 72 304 0.0 0.0 0.00 0.00 0.00 97 1009.7
20260906090738 72 310 0.0 0.0 0.00 0.00 0.00 97 1009.6
20260906090237 72 341 0.0 0.9 0.00 0.00 0.00 96 1009.7
20260906085736 73 342 0.0 0.0 0.00 0.00 0.00 96 1009.5
20260906085236 73 264 0.0 0.9 0.00 0.00 0.00 96 1009.7
20260906084730 73 214 0.0 0.0 0.00 0.00 0.00 95 1009.7
20260906084224 73 178 0.0 0.0 0.00 0.00 0.00 95 1009.6
20260906083720 73 196 0.0 0.9 0.00 0.00 0.00 95 1009.6
20260906083215 73 176 0.0 0.0 0.00 0.00 0.00 95 1009.5
20260906082710 73 277 0.0 0.0 0.00 0.00 0.00 94 1009.5
20260906082205 73 164 0.0 0.9 0.00 0.00 0.00 94 1009.8
20260906081701 73 243 0.0 0.9 0.00 0.00 0.00 94 1009.6
20260906081150 74 348 0.0 0.9 0.00 0.00 0.00 94 1009.7
20260906080647 74 243 0.9 1.7 0.00 0.00 0.00 93 1009.6
20260906080143 74 209 0.0 0.0 0.00 0.00 0.00 92 1009.6
20260906075642 74 194 0.0 0.0 0.00 0.00 0.00 92 1009.6
20260906075137 75 211 0.0 0.0 0.00 0.00 0.00 91 1009.6
20260906074632 75 15 0.0 0.0 0.00 0.00 0.00 90 1009.4
20260906074131 75 189 0.0 0.9 0.00 0.00 0.00 90 1009.7
20260906073626 76 264 0.0 0.9 0.00 0.00 0.00 89 1009.5
20260906073122 76 243 0.0 1.7 0.00 0.00 0.00 89 1009.5
20260906072616 76 187 0.0 1.7 0.00 0.00 0.00 89 1009.5
20260906072112 76 263 0.9 1.7 0.00 0.00 0.00 89 1009.5
20260906071609 76 228 0.0 0.9 0.00 0.00 0.00 89 1009.7
20260906071103 76 346 0.9 0.9 0.00 0.00 0.00 89 1009.8
20260906070600 76 244 0.0 1.7 0.00 0.00 0.00 90 1009.5
20260906070055 76 176 0.0 1.7 0.00 0.00 0.00 89 1009.8
20260906065554 77 221 0.9 0.9 0.00 0.00 0.00 90 1009.7
20260906065050 77 282 0.9 0.9 0.00 0.00 0.00 90 1009.6
20260906064546 77 136 0.0 1.7 0.00 0.00 0.00 90 1009.7
20260906064040 77 221 0.9 2.6 0.00 0.00 0.00 90 1009.7
20260906063535 77 210 0.9 1.7 0.00 0.00 0.00 89 1009.6
20260906063027 77 276 1.7 2.6 0.00 0.00 0.00 89 1009.8
20260906062521 77 174 3.5 6.1 0.00 0.00 0.00 89 1010.2
20260906062016 77 277 2.6 5.2 0.00 0.00 0.00 90 1010.0
20260906061512 77 166 2.6 4.3 0.00 0.00 0.00 90 1010.2
20260906061011 77 150 1.7 5.2 0.00 0.00 0.00 90 1010.1
20260906060508 77 158 1.7 5.2 0.00 0.00 0.00 90 1010.1
20260906060004 77 96 0.9 2.6 0.00 0.00 0.00 90 1010.3
20260906055500 76 127 2.6 5.2 0.00 0.00 0.00 91 1010.4
20260906054955 76 160 0.9 1.7 0.00 0.00 0.00 91 1010.5
20260906054455 76 181 0.9 2.6 0.00 0.00 0.00 91 1010.4
20260906053950 75 205 0.0 1.7 0.00 0.00 0.00 92 1010.5
20260906053447 75 195 0.9 0.9 0.00 0.00 0.00 93 1010.6
20260906052942 75 138 0.0 0.0 0.00 0.00 0.00 94 1010.5
20260906052438 75 152 0.0 0.0 0.00 0.00 0.00 94 1010.6
20260906051935 75 155 0.0 0.0 0.00 0.00 0.00 94 1010.7
20260906051430 75 153 0.0 0.0 0.00 0.00 0.00 94 1010.8
20260906050926 76 151 0.0 0.0 0.00 0.00 0.00 93 1010.5
20260906050425 76 171 0.0 0.0 0.00 0.00 0.00 93 1010.6
20260906045924 76 148 0.9 0.9 0.00 0.00 0.00 93 1010.6
20260906045423 77 137 0.0 0.0 0.00 0.00 0.00 92 1010.6
20260906044919 77 192 0.0 0.0 0.00 0.00 0.00 92 1010.7
20260906044414 77 212 0.0 0.9 0.00 0.00 0.00 92 1010.5
20260906043910 77 248 0.0 0.9 0.00 0.00 0.00 92 1010.6
20260906043406 77 241 0.0 0.9 0.00 0.00 0.00 92 1010.6
20260906042901 77 221 0.0 0.9 0.00 0.00 0.00 92 1010.7
20260906042400 78 130 0.0 1.7 0.00 0.00 0.00 91 1010.7
20260906041855 78 282 0.9 1.7 0.00 0.00 0.00 91 1010.7
20260906041351 78 187 0.9 2.6 0.00 0.00 0.00 91 1010.3
20260906040845 78 339 2.6 2.6 0.00 0.00 0.00 89 1010.5
20260906040341 78 212 0.0 1.7 0.00 0.00 0.00 89 1010.6
20260906035836 78 356 1.7 2.6 0.00 0.00 0.00 89 1010.9
20260906035331 78 153 0.0 0.0 0.00 0.00 0.00 89 1010.2
20260906034826 79 162 0.0 0.0 0.00 0.00 0.00 88 1010.2
20260906034321 79 163 0.0 0.0 0.00 0.00 0.00 87 1010.1
20260906033817 79 171 0.0 0.0 0.00 0.00 0.00 87 1010.4
20260906033316 79 257 0.0 0.0 0.00 0.00 0.00 87 1010.4
20260906032812 79 163 0.0 0.0 0.00 0.00 0.00 87 1010.5
20260906032308 79 337 0.0 0.0 0.00 0.00 0.00 87 1010.6
20260906031803 79 355 0.0 0.0 0.00 0.00 0.00 86 1010.3
20260906031259 80 263 0.0 0.0 0.00 0.00 0.00 85 1010.2
20260906030758 80 29 0.0 0.0 0.00 0.00 0.00 84 1010.1
20260906030254 79 194 0.0 1.7 0.00 0.00 0.00 85 1010.3
20260906025753 79 275 0.9 0.9 0.00 0.00 0.00 87 1010.1
20260906025248 79 199 0.0 2.6 0.00 0.00 0.00 86 1010.0
20260906024747 78 325 0.9 0.9 0.00 0.00 0.00 87 1010.2
20260906024245 78 22 0.0 0.9 0.00 0.00 0.00 90 1009.6
20260906023741 78 266 0.0 0.9 0.00 0.00 0.00 88 1009.7
20260906023237 78 59 0.0 0.9 0.00 0.00 0.00 88 1009.7
20260906022732 78 228 0.0 0.0 0.00 0.00 0.00 87 1009.4
20260906022227 79 201 0.9 0.9 0.00 0.00 0.00 86 1009.4
20260906021723 79 41 0.0 0.9 0.00 0.00 0.00 85 1009.3
20260906021222 79 179 0.0 0.0 0.00 0.00 0.00 84 1009.1
20260906020717 80 203 0.0 0.0 0.00 0.00 0.00 83 1009.0
20260906020212 80 128 0.0 0.0 0.00 0.00 0.00 82 1009.6
20260906015706 81 111 0.0 0.0 0.00 0.00 0.00 82 1009.1
20260906015205 81 34 0.0 1.7 0.00 0.00 0.00 81 1009.1
20260906014705 81 273 0.0 0.9 0.00 0.00 0.00 80 1009.0
20260906014201 82 163 0.0 0.0 0.00 0.00 0.00 79 1008.9
20260906013657 82 197 0.0 0.9 0.00 0.00 0.00 77 1008.9
20260906013152 83 151 0.0 0.9 0.00 0.00 0.00 78 1009.0
20260906012651 83 156 0.0 1.7 0.00 0.00 0.00 78 1008.9
20260906012146 83 207 0.0 4.3 0.00 0.00 0.00 78 1009.0
20260906011642 83 32 0.0 0.9 0.00 0.00 0.00 86 1009.0
20260906011136 83 56 0.0 1.7 0.00 0.00 0.00 82 1008.8
20260906010626 83 65 0.0 0.0 0.00 0.00 0.00 87 1008.7
20260906010123 83 46 0.0 0.9 0.00 0.00 0.00 86 1008.7
20260906005622 83 241 0.0 0.9 0.00 0.00 0.00 87 1008.7
20260906005121 82 79 1.7 2.6 0.00 0.00 0.00 87 1008.5
20260906004620 82 7 1.7 1.7 0.00 0.00 0.00 89 1008.8
20260906004115 83 249 0.0 0.0 0.00 0.00 0.00 89 1009.1
20260906003611 83 225 0.9 0.9 0.00 0.00 0.00 89 1008.9
20260906003106 83 209 0.0 0.0 0.00 0.00 0.00 88 1008.8
20260906002601 83 189 0.0 0.9 0.00 0.00 0.00 88 1009.0
20260906002056 84 168 0.0 0.0 0.00 0.00 0.00 87 1008.9
20260906001551 84 168 0.0 0.0 0.00 0.00 0.00 86 1009.0
20260906001045 84 168 0.0 0.0 0.00 0.00 0.00 85 1008.8
20260906000541 85 166 0.0 0.0 0.00 0.00 0.00 84 1008.9
20260906000036 86 193 0.0 0.0 0.00 0.00 0.00 83 1008.7
20260905235536 86 196 0.0 0.0 0.00 0.00 0.00 81 1008.7
20260905235031 87 196 0.0 0.0 0.00 0.00 0.00 79 1008.7
20260905234527 87 196 0.0 0.0 0.00 0.00 0.00 77 1009.0
20260905234027 88 196 0.0 0.0 0.00 0.00 0.00 75 1008.9
20260905233521 89 197 0.0 0.0 0.00 0.00 0.00 76 1008.8
20260905233021 90 181 0.0 0.0 0.00 0.00 0.00 72 1008.8
20260905232517 91 189 0.0 0.0 0.00 0.00 0.00 72 1008.9
20260905232012 92 190 0.0 0.0 0.00 0.00 0.00 69 1008.8
20260905231508 93 235 0.0 0.9 0.00 0.00 0.00 66 1008.6
20260905231004 95 259 0.0 0.9 0.00 0.00 0.00 63 1008.7
20260905230503 96 251 0.0 0.0 0.00 0.00 0.00 62 1008.8
20260905230001 96 274 0.0 0.0 0.00 0.00 0.00 61 1008.6
20260905225456 96 247 0.0 0.0 0.00 0.00 0.00 60 1008.5
20260905224951 96 234 0.0 0.0 0.00 0.00 0.00 61 1008.7
20260905224446 96 199 0.9 0.9 0.00 0.00 0.00 60 1008.9
20260905223945 96 247 0.9 1.7 0.00 0.00 0.00 58 1009.0
20260905223443 96 184 0.9 0.9 0.00 0.00 0.00 56 1008.8
20260905222944 96 126 0.9 1.7 0.00 0.00 0.00 58 1008.5
20260905222438 96 352 0.0 1.7 0.00 0.00 0.00 59 1008.7
20260905221934 97 238 1.7 2.6 0.00 0.00 0.00 59 1008.8
20260905221430 98 287 0.0 0.9 0.00 0.00 0.00 60 1008.7
20260905220926 97 152 0.0 0.9 0.00 0.00 0.00 60 1008.8
20260905220422 95 279 0.0 0.9 0.00 0.00 0.00 64 1008.8
20260905215921 94 138 0.0 0.9 0.00 0.00 0.00 64 1008.8
20260905215416 96 267 0.0 0.9 0.00 0.00 0.00 62 1008.9
20260905214913 98 181 0.0 0.9 0.00 0.00 0.00 54 1008.7
20260905214408 100 246 0.0 0.9 0.00 0.00 0.00 54 1008.8
20260905213908 100 218 0.0 0.9 0.00 0.00 0.00 50 1008.8
20260905213404 100 237 0.9 1.7 0.00 0.00 0.00 48 1008.7
20260905212900 99 245 0.0 0.9 0.00 0.00 0.00 53 1008.7
20260905212354 99 246 0.0 2.6 0.00 0.00 0.00 50 1008.6
20260905211847 99 32 0.0 1.7 0.00 0.00 0.00 49 1008.9
20260905211344 101 242 1.7 4.3 0.00 0.00 0.00 49 1008.8
20260905210840 101 115 0.9 1.7 0.00 0.00 0.00 48 1008.9
20260905210340 101 153 0.9 0.9 0.00 0.00 0.00 49 1008.9
20260905205838 101 244 0.9 1.7 0.00 0.00 0.00 48 1009.1
20260905205333 102 227 0.9 2.6 0.00 0.00 0.00 48 1009.1
20260905204832 102 297 0.9 0.9 0.00 0.00 0.00 48 1009.0
20260905204329 101 209 1.7 1.7 0.00 0.00 0.00 48 1009.4
20260905203827 101 274 0.9 1.7 0.00 0.00 0.00 54 1009.3
20260905203324 101 250 0.9 0.9 0.00 0.00 0.00 54 1009.3
20260905202819 100 183 0.0 0.9 0.00 0.00 0.00 51 1009.6
20260905202314 98 19 0.0 2.6 0.00 0.00 0.00 50 1009.4
20260905201809 99 138 2.6 4.3 0.00 0.00 0.00 50 1009.6
20260905201305 100 267 0.9 1.7 0.00 0.00 0.00 50 1009.7
20260905200759 99 144 2.6 2.6 0.00 0.00 0.00 50 1009.7
20260905200255 98 41 1.7 2.6 0.00 0.00 0.00 52 1009.7
20260905195753 98 189 3.5 5.2 0.00 0.00 0.00 53 1009.8
20260905195248 100 169 4.3 5.2 0.00 0.00 0.00 51 1009.9
20260905194744 99 225 2.6 4.3 0.00 0.00 0.00 51 1010.1
20260905194243 99 203 2.6 4.3 0.00 0.00 0.00 52 1010.0
20260905193743 100 269 0.9 6.1 0.00 0.00 0.00 52 1010.2
20260905193238 100 101 1.7 4.3 0.00 0.00 0.00 52 1010.1
20260905192733 100 359 0.9 0.9 0.00 0.00 0.00 55 1010.0
20260905192229 100 155 0.9 2.6 0.00 0.00 0.00 53 1010.3
20260905191729 100 277 4.3 5.2 0.00 0.00 0.00 52 1010.1
20260905191227 99 103 3.5 4.3 0.00 0.00 0.00 52 1010.3
20260905190726 99 354 0.0 4.3 0.00 0.00 0.00 53 1010.1
20260905190225 99 259 0.9 2.6 0.00 0.00 0.00 53 1010.4
20260905185724 99 286 0.9 2.6 0.00 0.00 0.00 51 1010.4
20260905185219 97 243 0.0 1.7 0.00 0.00 0.00 57 1010.6
20260905184713 97 338 0.0 0.0 0.00 0.00 0.00 60 1010.6
20260905184212 98 352 0.9 1.7 0.00 0.00 0.00 54 1010.7
20260905183706 98 45 0.0 0.9 0.00 0.00 0.00 58 1011.0
20260905183201 99 54 0.0 0.9 0.00 0.00 0.00 54 1010.7
20260905182701 99 333 0.9 0.9 0.00 0.00 0.00 54 1010.7
20260905182201 100 346 0.9 1.7 0.00 0.00 0.00 52 1010.9
20260905181656 100 42 0.9 0.9 0.00 0.00 0.00 55 1011.1
20260905181155 100 259 0.9 1.7 0.00 0.00 0.00 55 1011.3
20260905180649 99 279 0.9 0.9 0.00 0.00 0.00 58 1011.1
20260905180145 98 311 0.0 0.9 0.00 0.00 0.00 59 1011.3
20260905175644 98 11 0.9 1.7 0.00 0.00 0.00 55 1011.2
20260905175140 98 302 0.9 1.7 0.00 0.00 0.00 60 1011.4
20260905174635 100 42 2.6 2.6 0.00 0.00 0.00 54 1011.4
20260905174131 98 184 0.0 1.7 0.00 0.00 0.00 55 1011.4
20260905173626 98 80 0.9 1.7 0.00 0.00 0.00 56 1011.6
20260905173122 98 4 0.9 2.6 0.00 0.00 0.00 56 1011.5
20260905172621 98 210 0.9 2.6 0.00 0.00 0.00 59 1011.7
20260905172116 98 265 2.6 2.6 0.00 0.00 0.00 55 1011.5
20260905171612 98 31 0.0 0.9 0.00 0.00 0.00 62 1011.8
20260905171108 97 355 0.9 1.7 0.00 0.00 0.00 60 1011.6
20260905170604 98 53 0.9 0.9 0.00 0.00 0.00 58 1011.7
20260905170059 97 27 0.9 0.9 0.00 0.00 0.00 59 1011.6
20260905165554 97 241 0.9 1.7 0.00 0.00 0.00 62 1011.8
20260905165049 98 252 1.7 2.6 0.00 0.00 0.00 59 1011.8
20260905164544 97 213 0.0 0.9 0.00 0.00 0.00 60 1011.9
20260905164038 96 339 0.0 1.7 0.00 0.00 0.00 63 1011.7
20260905163534 96 14 0.9 1.7 0.00 0.00 0.00 59 1011.8
20260905163030 96 236 0.9 2.6 0.00 0.00 0.00 62 1011.8
20260905162527 96 40 0.9 1.7 0.00 0.00 0.00 65 1012.0
20260905162021 96 48 0.9 1.7 0.00 0.00 0.00 64 1012.2
20260905161520 96 295 0.9 1.7 0.00 0.00 0.00 64 1012.2
20260905161018 96 53 0.9 0.9 0.00 0.00 0.00 63 1012.4
20260905160511 95 358 0.9 1.7 0.00 0.00 0.00 65 1012.0
20260905160006 94 25 0.9 0.9 0.00 0.00 0.00 65 1012.3
20260905155506 93 97 0.9 0.9 0.00 0.00 0.00 71 1012.4
20260905155004 93 30 0.0 0.9 0.00 0.00 0.00 72 1012.5
20260905154500 93 317 0.0 1.7 0.00 0.00 0.00 69 1012.6
20260905153955 92 27 0.9 0.9 0.00 0.00 0.00 73 1012.6
20260905153452 91 50 0.9 1.7 0.00 0.00 0.00 76 1012.7
20260905152951 92 144 0.0 1.7 0.00 0.00 0.00 70 1012.6
20260905152451 91 4 0.0 0.9 0.00 0.00 0.00 74 1012.8
20260905151946 91 154 0.0 0.9 0.00 0.00 0.00 70 1012.6
20260905151441 91 46 0.9 0.9 0.00 0.00 0.00 74 1012.8
20260905150936 91 40 0.0 0.9 0.00 0.00 0.00 75 1012.8
20260905150436 89 90 0.0 0.9 0.00 0.00 0.00 77 1012.6
20260905145932 89 37 0.9 1.7 0.00 0.00 0.00 76 1012.6
20260905145427 89 52 0.0 0.9 0.00 0.00 0.00 78 1012.8
20260905144927 88 53 0.0 0.9 0.00 0.00 0.00 76 1012.7
20260905144423 88 117 0.0 0.9 0.00 0.00 0.00 80 1012.7
20260905143921 87 32 0.0 0.9 0.00 0.00 0.00 82 1012.6
20260905143415 86 60 0.9 0.9 0.00 0.00 0.00 81 1012.7
20260905142915 84 124 0.9 1.7 0.00 0.00 0.00 82 1012.7
20260905142414 83 81 0.9 0.9 0.00 0.00 0.00 88 1012.9
20260905141910 82 78 0.9 0.9 0.00 0.00 0.00 92 1013.0
20260905141404 80 72 0.0 0.9 0.00 0.00 0.00 97 1012.9
20260905140901 79 62 0.0 0.9 0.00 0.00 0.00 99 1013.0
20260905140355 78 77 0.0 0.9 0.00 0.00 0.00 99 1012.9
20260905135854 78 33 0.0 0.0 0.00 0.00 0.00 99 1012.9
20260905135350 77 56 0.0 0.9 0.00 0.00 0.00 99 1012.9
20260905134845 77 49 0.0 0.0 0.00 0.00 0.00 99 1012.8
20260905134344 76 46 0.0 0.0 0.00 0.00 0.00 99 1013.1
20260905133838 75 30 0.0 0.0 0.00 0.00 0.00 99 1013.1
20260905133334 75 63 0.0 0.0 0.00 0.00 0.00 99 1013.0
20260905132833 75 43 0.0 0.0 0.00 0.00 0.00 99 1013.1
20260905132329 75 53 0.0 0.0 0.00 0.00 0.00 99 1013.0
20260905131823 75 135 0.0 0.0 0.00 0.00 0.00 99 1013.0
20260905131319 74 135 0.0 0.0 0.00 0.00 0.00 99 1012.8
20260905130814 74 135 0.0 0.0 0.00 0.00 0.00 99 1012.9
20260905130312 74 135 0.0 0.0 0.00 0.00 0.00 99 1013.0
20260905125808 74 135 0.0 0.0 0.00 0.00 0.00 99 1012.8
20260905125305 74 187 0.0 0.0 0.00 0.00 0.00 99 1012.7
20260905124759 73 192 0.0 0.0 0.00 0.00 0.00 99 1012.9
20260905124254 73 185 0.0 0.0 0.00 0.00 0.00 99 1013.0
20260905123749 73 173 0.0 0.0 0.00 0.00 0.00 99 1012.9